Location: Eaton Estates
(41.3089°N, 82.0057°W)
Time: 15:26:25
(UTC+00:00)

NOAA 18 - Pass Details

Date: 04 April 2023
Orbit: 838 x 860 km, 98.9° (Epoch: 03 June)

Event Time Altitude Azimuth Distance (km) Brightness Sun altitude
Exits shadow 03:30:09 39° 340° (NNW) 1,277 6.4 -35.6°
Drops below altitude 10° 03:33:32 10° 345° (NNW) 2,506 8.3 -36.0°
Sets 03:35:55 0° 346° (NNW) 3,446 9.2 -36.2°
